Location: Spring Creek
(38.2870°N, 100.2160°W)
Time: 08:41:59
(UTC+00:00)

Meteor 2-2 Rocket - Pass Details

Date: 08 May 2021
Orbit: 853 x 928 km, 81.3° (Epoch: 21 June)

Event Time Altitude Azimuth Distance (km) Brightness Sun altitude
Rises 02:12:12 0° 183° (S) 3,442 7.1 -6.8°
Reaches altitude 10° 02:14:38 10° 182° (S) 2,500 6.4 -7.3°
Maximum altitude 02:20:18 77° 97° (E) 883 4.2 -8.2°
Drops below altitude 10° 02:25:55 10° 12° (NNE) 2,491 6.9 -9.2°
Sets 02:28:21 0° 11° (N) 3,430 7.6 -9.6°
